Location: B?jaj?g
(11.7167°N, 92.6667°E)
Time: 02:16:20
(UTC+00:00)

Sylda 5 - Pass Details

Date: 18 September 2020
Orbit: 572 x 35532 km, 7.2° (Epoch: 29 October)

Event Time Altitude Azimuth Distance (km) Brightness Sun altitude
Exits shadow 22:54:24 15° 246° (WSW) 1,564 3.5 -11.6°
Maximum altitude 22:57:02 48° 173° (S) 878 2.8 -11.0°
Drops below altitude 10° 23:03:22 10° 98° (E) 3,585 7.5 -9.4°
Sets 23:09:17 0° 93° (E) 6,384 9.6 -8.0°
